When you browse on this site, cookies collect data to enhance your experience and personalize the content and advertising you see.
Visit our Privacy Policy to learn more. By continuing to use the site, you agree to this use of cookies and data.
  • In Portugal
  • List of Countries
  • For 7 days
  • Water Temperature
  • Weather Map
  • Weather Widgets
  • user-avatar
    Login

    Hourly Weather Kostrza

    Today, 19 September, Thursday

    Time Temperature Precipitation Wind Pressure Humidity
    00:00 +6°C° 0 mm 2 mps 727 mmHg 82%
    01:00 +5°C° 0 mm 2 mps 727 mmHg 87%
    02:00 +5°C° 0.1 mm 2 mps 727 mmHg 88%
    03:00 +5°C° 0.1 mm 2 mps 727 mmHg 90%
    04:00 +5°C° 0.1 mm 2 mps 727 mmHg 92%
    05:00 +5°C° 0 mm 2 mps 727 mmHg 89%
    06:00 +6°C° 0 mm 2 mps 728 mmHg 86%
    07:00 +6°C° 0 mm 2 mps 728 mmHg 84%
    08:00 +8°C° 0.1 mm 3 mps 728 mmHg 77%
    09:00 +9°C° 0.1 mm 3 mps 728 mmHg 70%
    10:00 +10°C° 0.1 mm 4 mps 729 mmHg 64%
    11:00 +11°C° 0.2 mm 4 mps 728 mmHg 62%
    12:00 +11°C° 0.2 mm 4 mps 728 mmHg 61%
    13:00 +12°C° 0.2 mm 5 mps 728 mmHg 59%
    14:00 +11°C° 0.1 mm 4 mps 728 mmHg 60%
    15:00 +11°C° 0.1 mm 4 mps 728 mmHg 61%
    16:00 +11°C° 0.1 mm 4 mps 728 mmHg 63%
    17:00 +10°C° 0.4 mm 3 mps 728 mmHg 71%
    18:00 +8°C° 0.4 mm 3 mps 728 mmHg 80%
    19:00 +7°C° 0.4 mm 2 mps 728 mmHg 89%
    20:00 +6°C° 0.3 mm 2 mps 728 mmHg 90%
    21:00 +6°C° 0.3 mm 2 mps 729 mmHg 91%
    22:00 +5°C° 0.3 mm 2 mps 729 mmHg 92%
    23:00 +5°C° 0 mm 2 mps 729 mmHg 92%

    Tomorrow, 20 September, Friday

    Time Temperature Precipitation Wind Pressure Humidity
    00:00 +5°C° 0 mm 2 mps 729 mmHg 92%
    01:00 +4°C° 0 mm 2 mps 729 mmHg 92%
    02:00 +4°C° 0 mm 2 mps 729 mmHg 93%
    03:00 +4°C° 0 mm 2 mps 729 mmHg 93%
    04:00 +3°C° 0 mm 2 mps 729 mmHg 94%
    05:00 +4°C° 0 mm 2 mps 729 mmHg 92%
    06:00 +5°C° 0 mm 2 mps 730 mmHg 91%
    07:00 +5°C° 0 mm 2 mps 730 mmHg 89%
    08:00 +7°C° 0 mm 2 mps 730 mmHg 82%
    09:00 +8°C° 0 mm 3 mps 731 mmHg 74%
    10:00 +10°C° 0 mm 3 mps 731 mmHg 67%
    11:00 +11°C° 0.1 mm 3 mps 731 mmHg 63%
    12:00 +11°C° 0.1 mm 3 mps 730 mmHg 59%
    13:00 +12°C° 0.1 mm 3 mps 730 mmHg 55%
    14:00 +12°C° 0.1 mm 3 mps 730 mmHg 56%
    15:00 +12°C° 0.1 mm 3 mps 730 mmHg 58%
    16:00 +12°C° 0.1 mm 3 mps 729 mmHg 59%
    17:00 +10°C° 0 mm 2 mps 729 mmHg 66%
    18:00 +8°C° 0 mm 2 mps 730 mmHg 73%
    19:00 +8°C° 0 mm 1 mps 730 mmHg 80%
    20:00 +7°C° 0 mm 1 mps 730 mmHg 80%
    21:00 +7°C° 0 mm 1 mps 730 mmHg 81%
    22:00 +7°C° 0 mm 1 mps 730 mmHg 82%
    23:00 +6°C° 0 mm 1 mps 730 mmHg 83%

    Day after tomorrow, 21 September, Saturday

    Time Temperature Precipitation Wind Pressure Humidity
    00:00 +6°C° 0 mm 1 mps 730 mmHg 84%
    01:00 +6°C° 0 mm 1 mps 730 mmHg 85%
    02:00 +5°C° 0 mm 1 mps 730 mmHg 85%
    03:00 +5°C° 0 mm 1 mps 730 mmHg 85%
    04:00 +5°C° 0 mm 1 mps 730 mmHg 85%
    05:00 +6°C° 0 mm 1 mps 730 mmHg 80%
    06:00 +7°C° 0 mm 1 mps 730 mmHg 76%
    07:00 +8°C° 0 mm 1 mps 730 mmHg 72%
    08:00 +10°C° 0 mm 1 mps 730 mmHg 65%
    09:00 +13°C° 0 mm 1 mps 730 mmHg 57%
    10:00 +15°C° 0 mm 1 mps 730 mmHg 49%
    11:00 +16°C° 0 mm 1 mps 730 mmHg 47%
    12:00 +18°C° 0 mm 1 mps 729 mmHg 45%
    13:00 +19°C° 0 mm 1 mps 729 mmHg 42%
    14:00 +18°C° 0 mm 1 mps 729 mmHg 47%
    15:00 +18°C° 0 mm 1 mps 728 mmHg 51%
    16:00 +18°C° 0 mm 1 mps 728 mmHg 55%
    17:00 +14°C° 0 mm 1 mps 728 mmHg 61%
    18:00 +12°C° 0 mm 1 mps 728 mmHg 67%
    19:00 +10°C° 0 mm 1 mps 728 mmHg 73%
    20:00 +10°C° 0 mm 1 mps 728 mmHg 75%
    21:00 +10°C° 0 mm 1 mps 728 mmHg 76%
    22:00 +9°C° 0 mm 1 mps 728 mmHg 77%
    23:00 +9°C° 0 mm 1 mps 727 mmHg 78%

    22 September, Sunday

    Time Temperature Precipitation Wind Pressure Humidity
    00:00 +9°C° 0 mm 1 mps 727 mmHg 78%
    01:00 +8°C° 0 mm 1 mps 727 mmHg 78%
    02:00 +8°C° 0 mm 1 mps 727 mmHg 78%
    03:00 +8°C° 0 mm 1 mps 726 mmHg 78%
    04:00 +8°C° 0 mm 1 mps 726 mmHg 78%
    05:00 +8°C° 0 mm 1 mps 726 mmHg 76%
    06:00 +9°C° 0 mm 1 mps 726 mmHg 73%
    07:00 +10°C° 0 mm 1 mps 726 mmHg 70%
    08:00 +13°C° 0 mm 1 mps 726 mmHg 62%
    09:00 +15°C° 0 mm 1 mps 726 mmHg 54%
    10:00 +18°C° 0 mm 1 mps 726 mmHg 47%
    11:00 +20°C° 0 mm 1 mps 726 mmHg 45%
    12:00 +21°C° 0 mm 1 mps 725 mmHg 43%
    13:00 +21°C° 0 mm 2 mps 725 mmHg 41%
    14:00 +20°C° 0 mm 2 mps 724 mmHg 45%
    15:00 +20°C° 0 mm 2 mps 724 mmHg 50%
    16:00 +19°C° 0 mm 2 mps 723 mmHg 54%
    17:00 +17°C° 0 mm 2 mps 723 mmHg 58%
    18:00 +15°C° 0 mm 2 mps 723 mmHg 62%
    19:00 +13°C° 0 mm 2 mps 722 mmHg 66%
    20:00 +13°C° 0 mm 2 mps 722 mmHg 63%
    21:00 +13°C° 0 mm 2 mps 722 mmHg 61%
    22:00 +14°C° 0 mm 2 mps 721 mmHg 58%
    23:00 +14°C° 0 mm 2 mps 721 mmHg 56%

    23 September, Monday

    Time Temperature Precipitation Wind Pressure Humidity
    00:00 +14°C° 0 mm 2 mps 721 mmHg 53%
    01:00 +14°C° 0 mm 2 mps 720 mmHg 51%
    02:00 +14°C° 0 mm 2 mps 720 mmHg 51%
    03:00 +13°C° 0 mm 2 mps 720 mmHg 52%
    04:00 +13°C° 0 mm 2 mps 719 mmHg 52%
    05:00 +13°C° 0 mm 2 mps 719 mmHg 55%
    06:00 +13°C° 0 mm 2 mps 719 mmHg 57%
    07:00 +14°C° 0 mm 2 mps 718 mmHg 60%
    08:00 +16°C° 0 mm 2 mps 719 mmHg 56%
    09:00 +18°C° 0 mm 2 mps 719 mmHg 53%
    10:00 +21°C° 0 mm 1 mps 719 mmHg 49%
    11:00 +20°C° 0 mm 2 mps 719 mmHg 50%
    12:00 +21°C° 0 mm 2 mps 718 mmHg 51%
    13:00 +21°C° 0 mm 2 mps 718 mmHg 52%
    14:00 +20°C° 0 mm 2 mps 718 mmHg 58%
    15:00 +19°C° 0 mm 2 mps 718 mmHg 64%
    16:00 +18°C° 0 mm 3 mps 718 mmHg 70%
    17:00 +17°C° 0 mm 2 mps 718 mmHg 72%
    18:00 +16°C° 0 mm 2 mps 718 mmHg 75%
    19:00 +16°C° 0 mm 2 mps 718 mmHg 77%
    20:00 +15°C° 0.3 mm 2 mps 718 mmHg 82%
    21:00 +13°C° 0.3 mm 3 mps 718 mmHg 88%
    22:00 +13°C° 0.3 mm 3 mps 718 mmHg 93%
    23:00 +12°C° 0.8 mm 3 mps 718 mmHg 93%

    24 September, Tuesday

    Time Temperature Precipitation Wind Pressure Humidity
    00:00 +12°C° 0.8 mm 4 mps 718 mmHg 92%
    01:00 +12°C° 0.8 mm 4 mps 718 mmHg 92%
    02:00 +12°C° 0 mm 4 mps 718 mmHg 92%
    03:00 +11°C° 0 mm 3 mps 718 mmHg 92%
    04:00 +11°C° 0 mm 3 mps 718 mmHg 93%
    05:00 +11°C° 0.1 mm 3 mps 718 mmHg 92%
    06:00 +11°C° 0.1 mm 3 mps 718 mmHg 91%
    07:00 +11°C° 0.1 mm 4 mps 718 mmHg 90%
    08:00 +11°C° 0.9 mm 4 mps 719 mmHg 89%
    09:00 +11°C° 0.9 mm 4 mps 719 mmHg 89%
    10:00 +11°C° 0.9 mm 4 mps 719 mmHg 88%
    11:00 +11°C° 1.3 mm 4 mps 719 mmHg 89%
    12:00 +11°C° 1.3 mm 4 mps 719 mmHg 90%
    13:00 +11°C° 1.3 mm 3 mps 719 mmHg 91%
    14:00 +12°C° 0.2 mm 3 mps 719 mmHg 89%
    15:00 +13°C° 0.2 mm 3 mps 719 mmHg 86%
    16:00 +15°C° 0.2 mm 2 mps 719 mmHg 84%
    17:00 +14°C° 0.1 mm 2 mps 720 mmHg 86%
    18:00 +13°C° 0.1 mm 2 mps 720 mmHg 88%
    19:00 +12°C° 0.1 mm 2 mps 720 mmHg 90%
    20:00 +10°C° 0 mm 2 mps 720 mmHg 91%
    21:00 +10°C° 0 mm 2 mps 720 mmHg 92%
    22:00 +10°C° 0 mm 2 mps 720 mmHg 92%
    23:00 +10°C° 0 mm 2 mps 720 mmHg 92%
    Show more